Regional Weather Roundup
Issued by NWS Cleveland, OH

Home | Current Version | Previous Version | Graphics & Text | Print | Product List | Glossary On
Versions: 1 2 3 4 5 6 7 8 9 10 11 12 13 14 15 16 17 18 19 20 21 22 23 24 25 26 27 28 29 30 31 32 33 34 35 36 37 38 39 40 41 42 43 44 45 46 47 48 49 50
000
ASUS41 KCLE 161400
RWRCLE
OHIO REGIONAL WEATHER ROUNDUP
NATIONAL WEATHER SERVICE WILMINGTON, OH
900 AM EST SAT DEC 16 2017

NOTE: "FAIR" INDICATES FEW OR NO CLOUDS BELOW 12,000 FEET WITH NO
SIGNIFICANT WEATHER AND/OR OBSTRUCTIONS TO VISIBILITY.

OHZ001>008-015>018-024>027-034-035-043-044-161500-
   NORTHWEST OHIO

CITY           SKY/WX    TMP DP  RH WIND       PRES   REMARKS
DEFIANCE       CLOUDY    34  25  69 SW9       29.94S WCI  27
FINDLAY        CLOUDY    35  26  69 S13       29.95F WCI  26
TOLEDO EXPRESS CLOUDY    34  27  75 S9        29.93F WCI  27
TOLEDO EXEC    CLOUDY    34  26  72 SW13      29.95S WCI  25
LIMA           CLOUDY    34  27  75 SW14G25   29.96S WCI  25
$$

OHZ009>014-019>023-028>033-038-089-161500-
   NORTHEAST OHIO

CITY           SKY/WX    TMP DP  RH WIND       PRES   REMARKS
CLE-HOPKINS    CLOUDY    35  25  66 SW12      29.99S WCI  27
CLE-LAKEFRONT  CLOUDY    35  24  64 SW17      29.96S WCI  25
CUY CO. ARPT   FLURRIES  36  25  64 W16G25    29.97S
LORAIN-ELYRIA  CLOUDY    34  22  61 SW16      29.97S WCI  24
ASHTABULA      CLOUDY    29  26  89 SW13      29.96S WCI  19
AKRON-CANTON   CLOUDY    31  23  72 SW15      29.98F WCI  20
WOOSTER        NOT AVBL
MANSFIELD      CLOUDY    33  25  72 SW17G23   29.98R WCI  22
YOUNGSTOWN     FLURRIES  30  24  78 SW9       29.97S WCI  22
$$

OHZ042-051>053-060>062-070>072-077>081-161500-
  SOUTHWEST OHIO

CITY           SKY/WX    TMP DP  RH WIND       PRES   REMARKS
CINC-COVINGTON FAIR      33  26  75 SW14G21   30.06F WCI  23
CINC-LUNKEN    FAIR      34  26  72 S9        30.10F WCI  27
HAMILTON       FAIR      35  26  69 S6        30.08S
DAYTON         NOT AVBL
WRIGHT-PAT AFB MOCLDY    35  26  70 S13       30.03S WCI  26
DAYTON GENERAL FAIR      33  25  72 S13       30.04S WCI  24
WILMINGTON     FAIR      33  26  75 SW14      30.04S WCI  23
$$

OHZ036-037-039>041-045>050-054>059-063>069-073>076-082>088-161500-
  CENTRAL AND SOUTHEAST OHIO

CITY           SKY/WX    TMP DP  RH WIND       PRES   REMARKS
COLUMBUS       CLOUDY    35  25  66 SW9       30.05R WCI  28
OSU AIRPORT    CLOUDY    34  26  72 SW13      30.03R WCI  25
BOLTON FIELD   CLOUDY    34  25  69 SW14G21   30.05R WCI  24
RICKENBACK AFB NOT AVBL
NEWARK         PTSUNNY   35  25  66 SW9       30.04R WCI  28
MARION         NOT AVBL
LANCASTER      CLOUDY    35  25  66 SW12      30.06R WCI  27
ZANESVILLE     CLOUDY    34  23  64 SW10      30.06R WCI  26
NEW PHILLY     CLOUDY    33  23  66 VRB6      30.04F WCI  28
$$



USA.gov is the U.S. government's official web portal to all federal, state and local government web resources and services.